This is the latest recevied weather packets stored in our database for station/object N8XE-13. If no packets are shown the sender has not sent any weather packets the latest 10 day(s).
| Time | Temp. | Humidity | Pressure | Rain* | Wind** | Luminosity | Snow |
|---|---|---|---|---|---|---|---|
| 1777852557 | 10° C | 72% | - | 0 mm | - | - | - |
| 1777852253 | 10° C | 72% | - | 0 mm | - | - | - |
| 1777851951 | 10° C | 73% | - | 0 mm | - | - | - |
| 1777851649 | 10° C | 71% | - | 0 mm | - | - | - |
| 1777851345 | 10° C | 72% | - | 0 mm | - | - | - |
| 1777851041 | 10.56° C | 71% | - | 0 mm | - | - | - |
| 1777850739 | 10.56° C | 68% | - | 0 mm | - | - | - |
| 1777850436 | 11.11° C | 66% | - | 0 mm | - | - | - |
| 1777850134 | 11.67° C | 61% | - | 0 mm | - | - | - |
| 1777849830 | 11.67° C | 59% | - | 0 mm | - | - | - |
| 1777849527 | 12.22° C | 58% | - | 0 mm | - | - | - |
| 1777849224 | 12.22° C | 56% | - | 0 mm | - | - | - |
| 1777848921 | 12.22° C | 55% | - | 0 mm | - | - | - |
| 1777848616 | 12.78° C | 53% | - | 0 mm | - | - | - |
| 1777848314 | 12.78° C | 51% | - | 0 mm | - | - | - |
| 1777848011 | 13.33° C | 48% | - | 0 mm | - | - | - |
| 1777847709 | 13.89° C | 46% | - | 0 mm | - | - | - |
| 1777847404 | 13.89° C | 44% | - | 0 mm | - | - | - |
| 1777847103 | 15° C | 42% | - | 0 mm | - | - | - |
| 1777846801 | 15° C | 40% | - | 0 mm | - | - | - |
| 1777846499 | 15° C | 40% | - | 0 mm | - | - | - |
| 1777846196 | 15° C | 39% | - | 0 mm | - | - | - |
| 1777845892 | 15° C | 40% | - | 0 mm | - | - | - |
| 1777845589 | 15° C | 40% | - | 0 mm | - | - | - |
| 1777845285 | 15° C | 41% | - | 0 mm | - | - | - |
* Rain latest hour (hover to see other rain measurements)
** Current wind speed in m/s (hover to see current wind gust speed)